NOAA 16 DEB, 42354

Orbit data source: Space-Track

NOAA 16 DEB, 42354 is space debris in SSO originally from a launch on Thu, 21 Sep 2000 UTC launched from the Air Force Western Test Range (AFWTR). Debris objects in space refer to the collection of defunct objects orbiting the Earth. Examples of debris include non-operational satellites, rocket bodies, and fragments generated from explosions, collisions, or faulty payload assembly.

Loading next visibility...
Identifier
42354, 2000-055QW
Orbit
SSO
Country
Flag of USUS
Related business
Manufacturer
Unknown
Mission
Spacecraft
Bus & Motor
Unknown
Mass
Unknown
Launch date (UTC)
2000-09-21 (26 years ago)
Launch vehicle
Unknown
Launch site
Air Force Western Test Range (AFWTR)
Object type
Payload
Rocket body
Debris
Shape & HBR
Unknown shape, 0.1 m
Radar Cross Section
Medium (>0.1 m² and <1 m²)

Expand to show TLE details & history
Last TLE update: 2 days ago

TLE from 2 days ago
0 NOAA 16 DEB
1 42354U 00055QW  26262.24325204  .00003711  00000-0  17669-2 0  9991
2 42354  99.1386  13.6875 0021706  65.6628 294.6811 14.19854520533905
Epoch: 2026-09-19T05:50Z
TLE epoch observation values (Epoch: 2026-09-19T05:50:16.976Z)
Latitude
0.00006°
Longitude
-72.03783°
Altitude
822.242 km
Speed
7.445 km/s
True Right ascension
00h 54m 44s
True Declination
0° 00' 00"
Sunlit
Object was in full shadow at epoch
Visualization orbit readout
Latitude
Unknown
Longitude
Unknown
Altitude
Unknown
Speed
Unknown
Apparent Right ascension
Unknown
Apparent Declination
Unknown
Sunlit
N/A
Visualization observer readout
Local Sidereal Time
13:44:51
Azimuth
Unknown
Elevation
Unknown
Doppler factor
Unknown
Orbital elements
Apogee altitude
838.655 km
Perigee altitude
807.394 km
Semi-major axis
7,201.162 km
Eccentricity
0.00217
Inclination
99.1386°
RAAN
13.6875°
Arg. of periapsis
65.6628°
True anomaly
294.45483°
Mean anomaly
294.6811°
Eccentric anomaly
294.56799°
Mean motion
3.55172 °/min
Orbital period
101.36 mins
BSTAR
0.0017669
Loading maneuver chart data...
Computing Atmospheric mass density...

Documentation

Showing up to 5 results
|